Location: Sungai Bunut
(2.6333°N, 113.7333°E)
Time: 11:41:01
(UTC+00:00)

A-11 Canister half - Pass Details

Date: 11 December 2023
Orbit: 1526 x 1682 km, 47.3° (Epoch: 04 March)

Event Time Altitude Azimuth Distance (km) Brightness Sun altitude
Exits shadow 20:46:41 13° 244° (WSW) 3,489 10.5 -22.1°
Maximum altitude 20:49:01 14° 228° (SW) 3,387 10.6 -21.6°
Drops below altitude 10° 20:53:32 10° 198° (SSW) 3,706 11.1 -20.5°
Sets 20:58:40 0° 175° (S) 4,677 11.9 -19.3°
